EW7309 Weather Reports


time (UTC)temp
F
wind
direction
speed
knots
gust
knots
rain 1hr
in
rain 24hr
in
rain mn
in
humidity
%
barometer
mb
20260906234745 62 205 6.1 18.2 0.00 0.00 0.00 50 1021.5
20260906234510 62 199 5.2 16.5 0.00 0.00 0.00 49 1021.5
20260906233744 62 190 4.3 19.1 0.00 0.00 0.00 49 1021.5
20260906233245 62 209 4.3 19.1 0.00 0.00 0.00 48 1021.7
20260906232744 63 200 7.0 20.0 0.00 0.00 0.00 48 1021.7
20260906232243 63 182 6.1 20.0 0.00 0.00 0.00 47 1021.9
20260906232014 64 155 5.2 16.5 0.00 0.00 0.00 45 1022.1
20260906231243 64 188 6.1 22.6 0.00 0.00 0.00 44 1022.2
20260906230743 65 155 5.2 22.6 0.00 0.00 0.00 42 1022.3
20260906230244 66 165 5.2 13.9 0.00 0.00 0.00 41 1022.3
20260906225745 66 178 6.1 13.9 0.00 0.00 0.00 40 1022.3
20260906225245 67 182 5.2 13.9 0.00 0.00 0.00 37 1022.2
20260906224729 68 208 3.5 13.0 0.00 0.00 0.00 34 1022.1
20260906224224 68 157 4.3 13.0 0.00 0.00 0.00 33 1022.0
20260906223717 69 151 2.6 13.0 0.00 0.00 0.00 32 1021.9
20260906223207 69 187 1.7 13.9 0.00 0.00 0.00 30 1021.6
20260906222919 69 211 2.6 13.9 0.00 0.00 0.00 29 1021.5
20260906222157 70 203 2.6 9.6 0.00 0.00 0.00 28 1021.4
20260906221642 70 167 3.5 9.6 0.00 0.00 0.00 27 1021.5
20260906221353 70 146 2.6 9.6 0.00 0.00 0.00 27 1021.4
20260906220630 70 193 2.6 10.4 0.00 0.00 0.00 27 1021.5
20260906220120 70 200 1.7 8.7 0.00 0.00 0.00 26 1021.4
20260906215614 71 198 2.6 9.6 0.00 0.00 0.00 26 1021.5
20260906215108 70 190 3.5 13.9 0.00 0.00 0.00 26 1021.5
20260906214555 71 173 3.5 13.9 0.00 0.00 0.00 25 1021.5
20260906214048 71 168 1.7 10.4 0.00 0.00 0.00 25 1021.4
20260906213542 71 150 1.7 7.0 0.00 0.00 0.00 25 1021.5
20260906213032 72 198 2.6 8.7 0.00 0.00 0.00 25 1021.5
20260906212742 72 153 2.6 8.7 0.00 0.00 0.00 25 1021.5
20260906212020 72 192 2.6 11.3 0.00 0.00 0.00 26 1021.4
20260906211507 73 164 1.7 11.3 0.00 0.00 0.00 25 1021.2
20260906211000 73 155 2.6 11.3 0.00 0.00 0.00 25 1021.2
20260906210454 73 135 3.5 12.2 0.00 0.00 0.00 25 1021.2
20260906210204 73 145 2.6 12.2 0.00 0.00 0.00 26 1021.4
20260906205709 73 151 1.7 10.4 0.00 0.00 0.00 27 1021.2
20260906204932 73 80 0.9 10.4 0.00 0.00 0.00 26 1021.4
20260906204418 73 77 0.9 6.1 0.00 0.00 0.00 26 1021.4
20260906203912 73 98 0.9 8.7 0.00 0.00 0.00 26 1021.4
20260906203406 73 89 0.9 8.7 0.00 0.00 0.00 26 1021.5
20260906203114 73 112 1.7 10.4 0.00 0.00 0.00 27 1021.5
20260906202351 73 67 2.6 10.4 0.00 0.00 0.00 26 1021.5
20260906201844 73 112 3.5 11.3 0.00 0.00 0.00 26 1021.6
20260906201330 73 67 5.2 11.3 0.00 0.00 0.00 26 1021.5
20260906200825 73 97 3.5 9.6 0.00 0.00 0.00 26 1021.5
20260906200319 73 129 1.7 9.6 0.00 0.00 0.00 26 1021.6
20260906195809 73 53 1.7 7.8 0.00 0.00 0.00 26 1021.6
20260906195306 74 120 1.7 9.6 0.00 0.00 0.00 25 1021.6
20260906195016 74 107 1.7 9.6 0.00 0.00 0.00 24 1021.7
20260906194242 74 128 1.7 7.0 0.00 0.00 0.00 26 1021.7
20260906194000 74 84 1.7 7.8 0.00 0.00 0.00 24 1021.7
20260906193230 74 110 0.9 7.8 0.00 0.00 0.00 25 1021.9
20260906192728 74 114 1.7 8.7 0.00 0.00 0.00 24 1022.0
20260906192227 74 96 0.9 8.7 0.00 0.00 0.00 24 1022.0
20260906191727 74 138 0.9 7.8 0.00 0.00 0.00 25 1022.1
20260906191227 74 146 0.9 7.8 0.00 0.00 0.00 26 1022.1
20260906190725 73 88 0.9 10.4 0.00 0.00 0.00 26 1022.1
20260906190225 73 137 2.6 10.4 0.00 0.00 0.00 26 1022.2
20260906185726 73 80 2.6 7.8 0.00 0.00 0.00 26 1022.3
20260906185225 73 61 2.6 7.8 0.00 0.00 0.00 27 1022.3
20260906184725 72 126 1.7 8.7 0.00 0.00 0.00 27 1022.5
20260906184226 72 98 0.9 8.7 0.00 0.00 0.00 27 1022.6
20260906183726 72 110 0.0 2.6 0.00 0.00 0.00 27 1022.7
20260906183226 72 98 0.0 2.6 0.00 0.00 0.00 28 1022.8
20260906182726 72 67 0.0 0.9 0.00 0.00 0.00 28 1022.8
20260906182441 72 51 0.0 0.9 0.00 0.00 0.00 28 1023.0
20260906181715 71 273 0.0 0.9 0.00 0.00 0.00 28 1023.0
20260906181439 72 311 0.0 0.0 0.00 0.00 0.00 28 1023.0
20260906180712 71 241 0.0 0.0 0.00 0.00 0.00 29 1022.8
20260906180440 71 274 0.0 0.0 0.00 0.00 0.00 29 1023.1
20260906175711 71 190 0.0 0.0 0.00 0.00 0.00 29 1023.2
20260906175212 71 64 0.0 0.9 0.00 0.00 0.00 29 1023.1
20260906174712 70 101 0.0 0.9 0.00 0.00 0.00 29 1023.0
20260906174208 70 34 0.0 0.0 0.00 0.00 0.00 29 1023.1
20260906173710 70 309 0.0 0.0 0.00 0.00 0.00 29 1023.6
20260906173208 70 69 0.0 3.5 0.00 0.00 0.00 30 1023.5
20260906172934 70 323 0.0 3.5 0.00 0.00 0.00 29 1023.3
20260906172209 70 56 0.0 3.5 0.00 0.00 0.00 29 1023.5
20260906171708 70 59 0.0 3.5 0.00 0.00 0.00 29 1023.7
20260906171210 70 46 0.0 0.9 0.00 0.00 0.00 30 1023.6
20260906170709 69 325 0.0 3.5 0.00 0.00 0.00 31 1023.8
20260906170208 68 236 0.0 3.5 0.00 0.00 0.00 32 1023.8
20260906165710 68 249 0.0 2.6 0.00 0.00 0.00 32 1023.8
20260906165206 67 278 0.0 2.6 0.00 0.00 0.00 31 1023.8
20260906164705 68 288 0.0 0.9 0.00 0.00 0.00 30 1023.9
20260906164425 68 336 0.0 0.9 0.00 0.00 0.00 30 1024.1
20260906163705 68 0 0.0 0.9 0.00 0.00 0.00 31 1024.1
20260906163205 68 294 0.0 0.9 0.00 0.00 0.00 31 1024.2
20260906162705 67 59 0.0 0.0 0.00 0.00 0.00 31 1024.2
20260906162205 67 279 0.0 5.2 0.00 0.00 0.00 32 1024.2
20260906161706 66 0 0.0 5.2 0.00 0.00 0.00 31 1024.2
20260906161159 66 298 0.0 0.0 0.00 0.00 0.00 31 1024.1
20260906160648 66 303 0.0 0.0 0.00 0.00 0.00 33 1024.1
20260906160142 65 294 0.0 2.6 0.00 0.00 0.00 33 1024.2
20260906155638 65 292 0.0 2.6 0.00 0.00 0.00 33 1024.2
20260906155348 65 269 0.0 0.9 0.00 0.00 0.00 34 1024.2
20260906154617 64 312 0.0 0.9 0.00 0.00 0.00 36 1024.2
20260906154112 64 320 0.0 0.0 0.00 0.00 0.00 37 1024.3
20260906153601 63 285 0.0 0.9 0.00 0.00 0.00 38 1024.2
20260906153334 62 309 0.0 0.9 0.00 0.00 0.00 39 1024.4
20260906152549 62 274 0.0 0.0 0.00 0.00 0.00 40 1024.4
20260906152035 61 277 0.0 0.9 0.00 0.00 0.00 42 1024.4
20260906151754 61 277 0.0 0.9 0.00 0.00 0.00 42 1024.4
20260906151023 61 277 0.0 0.0 0.00 0.00 0.00 44 1024.3
20260906150513 60 275 0.0 0.0 0.00 0.00 0.00 44 1024.4
20260906150007 61 279 0.0 0.0 0.00 0.00 0.00 42 1024.4
20260906145500 61 261 0.0 0.0 0.00 0.00 0.00 43 1024.4
20260906144947 61 252 0.0 0.0 0.00 0.00 0.00 43 1024.3
20260906144441 61 252 0.0 0.0 0.00 0.00 0.00 42 1024.3
20260906143934 61 252 0.0 0.0 0.00 0.00 0.00 42 1024.3
20260906143426 61 252 0.0 0.0 0.00 0.00 0.00 42 1024.3
20260906142919 61 252 0.0 0.0 0.00 0.00 0.00 41 1024.2
20260906142413 61 252 0.0 0.0 0.00 0.00 0.00 41 1024.2
20260906142125 60 253 0.0 0.0 0.00 0.00 0.00 38 1024.2
20260906141615 60 224 0.0 0.0 0.00 0.00 0.00 37 1024.2
20260906141041 59 225 0.0 0.9 0.00 0.00 0.00 38 1024.1
20260906140933 59 224 0.0 0.9 0.00 0.00 0.00 38 1024.1
20260906135831 58 222 0.0 3.5 0.00 0.00 0.00 39 1024.1
20260906135543 57 213 0.0 3.5 0.00 0.00 0.00 40 1023.9
20260906134825 57 215 0.0 0.9 0.00 0.00 0.00 41 1023.9
20260906134324 56 213 0.0 0.9 0.00 0.00 0.00 41 1023.9
20260906133826 56 219 0.0 0.0 0.00 0.00 0.00 41 1023.8
20260906133325 55 211 0.0 0.0 0.00 0.00 0.00 42 1023.8
20260906132824 55 211 0.0 2.6 0.00 0.00 0.00 42 1023.7
20260906132323 54 210 0.0 2.6 0.00 0.00 0.00 43 1023.7
20260906131821 54 211 0.0 0.0 0.00 0.00 0.00 43 1023.7
20260906131321 53 207 0.0 0.0 0.00 0.00 0.00 43 1023.7
20260906130819 53 202 0.0 0.0 0.00 0.00 0.00 43 1023.6
20260906130321 53 201 0.0 0.0 0.00 0.00 0.00 43 1023.5
20260906125822 53 206 0.0 0.0 0.00 0.00 0.00 43 1023.5
20260906125318 53 206 0.9 5.2 0.00 0.00 0.00 43 1023.5
20260906124818 53 205 0.9 5.2 0.00 0.00 0.00 43 1023.5
20260906124318 53 210 0.0 3.5 0.00 0.00 0.00 44 1023.5
20260906123818 53 211 0.0 0.0 0.00 0.00 0.00 44 1023.5
20260906123320 53 211 0.0 0.0 0.00 0.00 0.00 43 1023.3
20260906123043 54 211 0.0 0.0 0.00 0.00 0.00 42 1023.3
20260906122316 54 211 0.0 0.0 0.00 0.00 0.00 42 1023.3
20260906121815 54 211 0.0 0.0 0.00 0.00 0.00 42 1023.2
20260906121536 54 207 0.0 0.0 0.00 0.00 0.00 42 1023.2
20260906120810 53 207 0.0 0.0 0.00 0.00 0.00 43 1023.2
20260906120309 53 211 0.0 0.0 0.00 0.00 0.00 42 1023.3
20260906120025 54 211 0.0 6.1 0.00 0.00 0.00 41 1023.3
20260906115306 55 211 0.0 6.1 0.00 0.00 0.00 41 1023.3
20260906114801 55 209 0.0 0.0 0.00 0.00 0.00 40 1023.3
20260906114301 56 209 0.0 0.0 0.00 0.00 0.00 39 1023.2
20260906113800 56 209 0.0 0.0 0.00 0.00 0.00 39 1023.2
20260906113301 56 205 0.0 0.0 0.00 0.00 0.00 39 1023.3
20260906112755 56 205 0.0 0.0 0.00 0.00 0.00 39 1023.2
20260906112523 56 209 0.0 0.9 0.00 0.00 0.00 39 1023.3
20260906111752 56 209 0.0 0.9 0.00 0.00 0.00 39 1023.3
20260906111252 56 213 0.0 0.0 0.00 0.00 0.00 39 1023.3
20260906110748 56 221 0.0 0.0 0.00 0.00 0.00 39 1023.3
20260906110247 56 212 0.0 0.9 0.00 0.00 0.00 39 1023.3
20260906105749 56 211 0.0 0.9 0.00 0.00 0.00 39 1023.3
20260906105247 56 214 0.0 0.9 0.00 0.00 0.00 38 1023.3
20260906104747 57 211 0.0 0.0 0.00 0.00 0.00 38 1023.3
20260906104246 56 209 0.0 5.2 0.00 0.00 0.00 38 1023.3
20260906103747 56 209 0.0 5.2 0.00 0.00 0.00 39 1023.3
20260906103509 56 209 0.0 0.0 0.00 0.00 0.00 39 1023.3
20260906102743 56 205 0.0 5.2 0.00 0.00 0.00 39 1023.3
20260906102242 56 207 0.0 5.2 0.00 0.00 0.00 39 1023.3
20260906102006 55 216 0.0 3.5 0.00 0.00 0.00 39 1023.3
20260906101240 55 211 0.0 4.3 0.00 0.00 0.00 39 1023.3
20260906100739 55 209 0.0 4.3 0.00 0.00 0.00 40 1023.2
20260906100235 55 206 0.0 4.3 0.00 0.00 0.00 39 1023.2
20260906095737 55 209 0.0 6.1 0.00 0.00 0.00 39 1023.2
20260906095237 55 205 0.0 6.1 0.00 0.00 0.00 39 1023.2
20260906094737 56 209 0.0 3.5 0.00 0.00 0.00 38 1023.2
20260906094234 56 211 0.0 0.0 0.00 0.00 0.00 38 1023.2
20260906093734 56 211 0.0 0.0 0.00 0.00 0.00 37 1023.1
20260906093233 56 228 0.0 4.3 0.00 0.00 0.00 37 1023.1
20260906092733 56 212 0.0 4.3 0.00 0.00 0.00 38 1023.1
20260906092229 56 223 0.0 0.0 0.00 0.00 0.00 38 1023.0
20260906091947 57 219 0.0 0.0 0.00 0.00 0.00 37 1023.1
20260906091217 57 220 0.9 6.1 0.00 0.00 0.00 37 1023.1
20260906090719 56 222 0.9 6.1 0.00 0.00 0.00 38 1023.1
20260906090217 55 202 0.0 0.0 0.00 0.00 0.00 40 1023.1
20260906085720 54 225 0.0 0.9 0.00 0.00 0.00 41 1023.0
20260906085215 55 252 0.0 1.7 0.00 0.00 0.00 41 1023.0
20260906084719 56 245 0.0 1.7 0.00 0.00 0.00 39 1023.0
20260906084216 57 232 0.0 3.5 0.00 0.00 0.00 38 1023.0
20260906083719 57 230 0.0 3.5 0.00 0.00 0.00 37 1022.8
20260906083213 57 220 0.0 1.7 0.00 0.00 0.00 37 1023.0
20260906082720 58 234 0.0 2.6 0.00 0.00 0.00 36 1023.0
20260906082212 58 226 0.0 2.6 0.00 0.00 0.00 36 1023.0
20260906081928 58 209 0.0 2.6 0.00 0.00 0.00 36 1023.1
20260906081212 57 215 0.0 2.6 0.00 0.00 0.00 36 1023.0
20260906080713 57 227 0.0 2.6 0.00 0.00 0.00 37 1023.0
20260906080212 56 224 0.9 4.3 0.00 0.00 0.00 37 1023.1
20260906075712 56 231 0.0 4.3 0.00 0.00 0.00 38 1023.0
20260906075211 56 214 0.0 1.7 0.00 0.00 0.00 37 1023.1
20260906074708 56 214 0.0 0.0 0.00 0.00 0.00 38 1023.1
20260906074207 56 214 0.0 0.9 0.00 0.00 0.00 37 1023.1
20260906073704 57 214 0.0 1.7 0.00 0.00 0.00 37 1023.1
20260906073205 58 214 0.0 1.7 0.00 0.00 0.00 36 1023.0
20260906072928 59 214 0.0 0.0 0.00 0.00 0.00 34 1023.0
20260906072201 59 214 0.0 0.0 0.00 0.00 0.00 34 1023.0
20260906071701 58 214 0.0 0.9 0.00 0.00 0.00 34 1023.0
20260906071158 58 215 0.0 4.3 0.00 0.00 0.00 34 1023.0
20260906070921 59 209 0.9 4.3 0.00 0.00 0.00 33 1023.1
20260906070159 59 210 0.0 3.5 0.00 0.00 0.00 33 1023.1
20260906065657 59 204 0.0 0.9 0.00 0.00 0.00 33 1023.1
20260906065156 59 204 0.0 0.0 0.00 0.00 0.00 32 1023.0
20260906064653 60 204 0.0 1.7 0.00 0.00 0.00 32 1023.0
20260906064150 60 204 0.9 3.5 0.00 0.00 0.00 31 1023.0
20260906063645 60 204 0.9 3.5 0.00 0.00 0.00 31 1023.0
20260906063138 60 201 0.0 0.0 0.00 0.00 0.00 31 1023.0
20260906062637 60 201 0.0 0.0 0.00 0.00 0.00 31 1022.8
20260906062138 61 201 0.0 0.0 0.00 0.00 0.00 30 1022.8
20260906061852 61 201 0.0 4.3 0.00 0.00 0.00 30 1022.8
20260906061133 61 207 0.0 4.3 0.00 0.00 0.00 30 1022.8
20260906060852 61 207 0.0 0.9 0.00 0.00 0.00 30 1022.8
20260906060130 61 206 0.0 0.0 0.00 0.00 0.00 30 1022.8
20260906055848 61 207 0.0 0.0 0.00 0.00 0.00 30 1022.8
20260906055129 61 209 0.0 1.7 0.00 0.00 0.00 30 1022.8
20260906054847 61 208 0.0 1.7 0.00 0.00 0.00 30 1022.8
20260906054127 60 207 0.0 2.6 0.00 0.00 0.00 31 1023.0
20260906053626 60 208 0.0 3.5 0.00 0.00 0.00 31 1022.8
20260906053126 61 208 0.9 5.2 0.00 0.00 0.00 31 1022.8
20260906052624 61 207 1.7 5.2 0.00 0.00 0.00 30 1022.8
20260906052120 61 0 0.9 5.2 0.00 0.00 0.00 30 1022.8
20260906051621 61 204 0.9 5.2 0.00 0.00 0.00 30 1022.8
20260906051121 61 205 0.0 5.2 0.00 0.00 0.00 30 1022.8
20260906050844 61 205 0.0 0.9 0.00 0.00 0.00 30 1022.8
20260906050118 62 205 0.0 2.6 0.00 0.00 0.00 29 1022.8
20260906045621 62 205 0.0 2.6 0.00 0.00 0.00 29 1022.8
20260906045118 62 196 0.0 0.0 0.00 0.00 0.00 28 1022.8
20260906044617 62 196 0.0 0.0 0.00 0.00 0.00 28 1022.8
20260906044115 63 196 0.0 0.0 0.00 0.00 0.00 28 1023.0
20260906043612 63 196 0.0 0.0 0.00 0.00 0.00 28 1022.8
20260906043113 63 196 0.0 0.0 0.00 0.00 0.00 28 1023.0
20260906042612 63 204 0.0 0.0 0.00 0.00 0.00 28 1023.0
20260906042112 63 204 0.0 0.0 0.00 0.00 0.00 28 1022.8
20260906041609 63 204 0.0 0.0 0.00 0.00 0.00 28 1022.8
20260906041107 63 204 0.0 0.0 0.00 0.00 0.00 28 1023.0
20260906040557 63 192 0.0 0.0 0.00 0.00 0.00 28 1022.8
20260906040051 63 192 0.0 0.0 0.00 0.00 0.00 28 1022.8
20260906035544 63 192 0.0 0.0 0.00 0.00 0.00 27 1022.8
20260906035032 63 192 0.0 0.0 0.00 0.00 0.00 27 1022.7
20260906034526 63 192 0.0 0.0 0.00 0.00 0.00 27 1022.7
20260906034019 63 192 0.0 2.6 0.00 0.00 0.00 28 1022.7
20260906033509 63 192 0.0 2.6 0.00 0.00 0.00 28 1022.7
20260906033003 63 177 0.0 0.9 0.00 0.00 0.00 28 1022.7
20260906032456 63 177 0.0 0.0 0.00 0.00 0.00 28 1022.5
20260906031943 63 177 0.0 0.0 0.00 0.00 0.00 27 1022.5
20260906031919 63 177 0.0 0.0 0.00 0.00 0.00 27 1022.5
20260906030931 63 177 0.0 0.0 0.00 0.00 0.00 27 1022.3
20260906030647 64 177 0.0 0.0 0.00 0.00 0.00 27 1022.5
20260906025915 64 177 0.0 0.0 0.00 0.00 0.00 26 1022.3
20260906025409 65 177 0.0 0.0 0.00 0.00 0.00 26 1022.3
20260906024855 66 177 0.0 0.0 0.00 0.00 0.00 24 1022.3
20260906024350 66 177 0.0 0.0 0.00 0.00 0.00 24 1022.2
20260906023843 66 177 0.0 0.0 0.00 0.00 0.00 24 1022.1
20260906023333 66 177 0.0 0.0 0.00 0.00 0.00 24 1022.1
20260906022827 66 177 0.0 0.9 0.00 0.00 0.00 24 1022.0
20260906022321 67 177 0.0 1.7 0.00 0.00 0.00 24 1022.0
20260906021808 67 175 0.0 1.7 0.00 0.00 0.00 24 1022.0
20260906021301 67 175 0.0 2.6 0.00 0.00 0.00 23 1022.0
20260906021022 68 173 0.9 3.5 0.00 0.00 0.00 23 1022.0
20260906020245 68 200 0.9 3.5 0.00 0.00 0.00 23 1021.9
20260906015739 69 178 0.0 3.5 0.00 0.00 0.00 22 1021.9
20260906015451 69 157 0.9 2.6 0.00 0.00 0.00 22 1021.9
20260906014732 70 157 0.9 2.6 0.00 0.00 0.00 21 1021.9
20260906014231 71 155 0.9 2.6 0.00 0.00 0.00 20 1021.9
20260906013728 72 180 0.9 4.3 0.00 0.00 0.00 20 1021.9
20260906013226 72 169 0.9 4.3 0.00 0.00 0.00 20 1021.9
20260906012727 73 165 1.7 8.7 0.00 0.00 0.00 19 1021.9
20260906012448 73 146 1.7 8.7 0.00 0.00 0.00 19 1021.9
20260906011726 73 161 0.9 6.1 0.00 0.00 0.00 19 1021.9
20260906011228 74 144 1.7 8.7 0.00 0.00 0.00 19 1021.9
20260906010727 74 160 0.9 8.7 0.00 0.00 0.00 19 1021.9
20260906010448 74 191 1.7 7.8 0.00 0.00 0.00 19 1021.9
20260906005725 75 182 1.7 8.7 0.00 0.00 0.00 18 1021.9
20260906005709 75 203 0.9 8.7 0.00 0.00 0.00 18 1022.0
20260906004725 75 179 0.9 7.0 0.00 0.00 0.00 18 1021.9
20260906004219 76 173 1.7 7.0 0.00 0.00 0.00 18 1021.9
20260906003714 76 205 1.7 8.7 0.00 0.00 0.00 18 1021.9
20260906003206 76 142 1.7 8.7 0.00 0.00 0.00 18 1021.9
20260906002705 76 209 1.7 8.7 0.00 0.00 0.00 18 1021.9
20260906002206 76 193 1.7 7.8 0.00 0.00 0.00 18 1021.9
20260906001707 77 160 0.9 7.0 0.00 0.00 0.00 17 1021.9
20260906001208 76 202 1.7 7.8 0.00 0.00 0.00 18 1021.9
20260906000708 76 185 1.7 7.8 0.00 0.00 0.00 18 1022.0
20260906000426 76 154 1.7 7.8 0.00 0.00 0.00 18 1021.9
20260905235928 76 142 1.7 7.8 0.00 0.00 0.00 17 1021.9
20260905235204 77 143 2.6 9.6 0.00 0.00 0.00 17 1021.9